STARLINK-33678, 63509

Orbit data source: Space-Track

STARLINK-33678, 63509 is a payload satellite owned by SpaceX/Seattle (US) in LEO that was launched on Mon, 07 Apr 2025 UTC via an FALCON 9 launch vehicle from the Air Force Western Test Range (AFWTR). Payload-class satellites include a variety of spacecraft equipped with specific instruments for various scientific and technological missions. These include communications satellites like Starlink; space stations such as the ISS; scientific satellites like the Hubble; Earth observation satellites from companies like Planet Labs, Umbra, and HawkEye 360; GPS; miniature CubeSats for education and research; and military/defense satellites.

Loading next visibility...
Identifier
63509, 2025-071S
Orbit
LEO
Last TLE update
2 days ago
Origin
Manufacturer
SpaceX/Seattle
Mission
Operational spacecraft
Bus & Motor
STARLINK V2MO, Unknown motor
Mass
575 kg wet, ~530 kg dry
Launch date (UTC)
2025-04-07 (3 weeks ago)
Launch vehicle
FALCON 9
Launch site
Air Force Western Test Range (AFWTR)
Object type
Payload
Rocket body
Debris
Shape & HBR
Unknown
Radar Cross Section
Large (>1 m²)

Expand to show TLE details & history

TLE from 2 days ago
0 STARLINK-33678
1 63509U 25071S   25118.51283011 -.00000373  00000-0  17509-5 0  9997
2 63509  53.1593 169.6554 0001430 126.4765 233.6387 15.74169981  4160
Epoch: 2025-04-28T12:18Z
Definitive object data (Epoch: 2025-04-28T12:18:28.521Z)
Latitude
-0°
Longitude
128.31078°
Altitude
348.481 km
Speed
7.701 km/s
True Right ascension
11h 18m 37s
True Declination
0° 00' 00"
Sunlit
Object was in full shadow at TLE epoch
Visualization TLE readout
Latitude
-18.16174°
Longitude
-46.8601°
Altitude
351.646 km
Speed
7.698 km/s
Apparent Right ascension
01h 51m 24s
Apparent Declination
-35° 07' 30"
Sunlit
Object is in daylight
Visualization observer readout
Local Sidereal Time
16:55:01
Azimuth
97.382° ESE
Elevation
-53.678°
Doppler factor
1
Orbital elements
Apogee altitude
348.217 km
Perigee altitude
346.294 km
Semi-major axis
6,725.392 km
Eccentricity
0.000143
Inclination
53.1593°
RAAN
169.6554°
Arg. of periapsis
126.4765°
True anomaly
233.62551°
Mean anomaly
233.6387°
Eccentric anomaly
233.6321°
Mean motion
3.9352 °/min
BSTAR
0.0000017509
Orbital period
91.48 mins
Loading maneuver chart data...
Loading SW <> Apogee altitude chart data...
Loading historical data...
Loading historical data...
Loading historical data...
Loading historical data...
Loading historical data...
Loading historical data...
Loading historical data...

STARLINK-33678 Visibility forecast

Observer location: undefined°, undefined°

Span
Click to sort rows by Start time (UTC) header in descending order
Start Az.
Max El. time (UTC)
Max El. Az.
Max El.
End time (UTC)
End Az.
5 mins2025-04-30 12:01:12.130Z322.556° NNW2025-04-30 12:04:12.130Z64.887° ENE32.576°2025-04-30 12:06:12.130Z108.522° ESE
|